Regional Weather Roundup
Issued by NWS Albany, NY

Home | Current Version | Previous Version | Text Only | Print | Product List | Glossary On
Versions: 1 2 3 4 5 6 7 8 9 10 11 12 13 14 15 16 17 18 19 20 21 22 23 24 25 26 27 28 29 30 31 32 33 34 35 36 37 38 39 40 41 42 43 44 45 46 47 48 49 50
000
ASUS41 KALY 212110
RWRALY

NEW YORK STATE HOURLY WEATHER ROUNDUP
NATIONAL WEATHER SERVICE ALBANY NY
500 PM EDT SUN SEP 21 2014

NOTE: "FAIR" INDICATES FEW OR NO CLOUDS BELOW 12,000 FEET WITH NO
SIGNIFICANT WEATHER AND/OR NO OBSTRUCTIONS TO VISIBILITY.

NYZ032-033-038>043-046>054-057>066-NYZ062>081-212200-
EAST


CITY           SKY/WX    TMP DP  RH WIND       PRES   REMARKS
ALBANY         PTSUNNY   78  64  61 S13G20    29.61F
GLENS FALLS    MOSUNNY   79  61  53 S14G21    29.59F
POUGHKEEPSIE   CLOUDY    77  66  68 SE6       29.63F
NEWBURGH       PTSUNNY   77  68  73 SE14      29.66F
MONTGOMERY     CLOUDY    79  64  60 S7        29.63F
WHITE PLAINS   CLOUDY    73  68  84 CALM      29.66F
ISLIP          CLOUDY    75  68  78 S6        29.64F
NEW YORK CITY  CLOUDY    75  66  73 VRB7      29.65F
CENTRAL PARK   CLOUDY    75  66  73 CALM      29.68F
$$

NYZ005>009-017-018-044>046-055-056-212200-
CENTRAL


CITY           SKY/WX    TMP DP  RH WIND       PRES   REMARKS
FULTON         LGT RAIN  71  63  75 S6        29.56R
SYRACUSE       LGT RAIN  65  59  81 W8        29.56S
ROME           LGT RAIN  68  66  93 NE3       29.57F FOG
ELMIRA         CLOUDY    75  64  68 S12       29.58F
BINGHAMTON     PTSUNNY   75  61  61 SW15G25   29.62F
MONTICELLO     PTSUNNY   77  55  47 S10       29.68F
$$

NYZ026>034-041>043-212200-
NORTH


CITY           SKY/WX    TMP DP  RH WIND       PRES   REMARKS
WATERTOWN      MOSUNNY   73  60  63 SW9G18    29.54R
FORT DRUM      NOT AVBL
MASSENA        MOSUNNY   75  65  70 S10G21    29.51F
SARANAC LAKE   CLOUDY    67  59  75 SW9       29.59F
PLATTSBURGH    CLOUDY    78  61  55 S13       29.55F
$$

NYZ001>004-010>016-019>021-212200-
WEST


CITY           SKY/WX    TMP DP  RH WIND       PRES   REMARKS
NIAGARA FALLS  MOSUNNY   71  55  56 W23G32    29.58R
BUFFALO        MOSUNNY   69  55  60 SW18G33   29.61R
DUNKIRK        SUNNY     68  56  65 W20G33    29.64R
JAMESTOWN      SUNNY     64  54  68 W18G28    29.67S
WELLSVILLE     LGT RAIN  68  60  75 W10       29.66F
ROCHESTER      MOSUNNY   73  51  46 W22G32    29.57S
PENN YAN       CLOUDY    67  59  75 W9        29.59F
$$

             KEY
       WCI = WIND CHILL INDEX
       VSB = VISIBILITY
       HX  = HEAT INDEX
$$


USA.gov is the U.S. government's official web portal to all federal, state and local government web resources and services.